User: anonymous
Location: Bush Observatory
(40.2653°N, 94.3194°W)
Time: 23:46:26
(UTC-05:00)
Language:

Iridium 15 - Orbit

View from above orbital plane
View from above orbital plane
View from above satellite
View from above satellite

Ground track
Ground track

The orbit data is extracted from the following two-line orbital elements,

1 24869U 97034A   14294.46124183  .00000629  00000-0  21749-3 0  1200
2 24869 086.3969 067.1628 0002128 110.6877 315.7239 14.34216787904922
Epoch (UTC): 21 October 2014 11:04:11
Eccentricity: 0.0002128
inclination: 86.3969°
perigee height: 776 km
apogee height: 779 km
right ascension of ascending node: 67.1628°
argument of perigee: 110.6877°
revolutions per day: 14.34216787
mean anomaly at epoch: 315.7239°
orbit number at epoch: 90492

The dashed part of the orbit path shows where the satellite is in the earth's shadow,  

DLR